[[[{"header":{"parameterUnit":"kt","parameterCategory":2,"dx":1,"dy":1,"la1":30.253999710083008,"la2":30.299108505249023,"lo1":-89.0895004272461,"lo2":-89.04439544677734,"nx":28,"ny":28,"refTime":"2022-10-19T21:00:00:Z","depth":0,"parameterNumber":1,"parameterNumberName":"U-component_of_WINDS"},"data":[2.4481,2.4504,2.4509,2.4539,2.4547,2.4569,2.4578,2.459,2.4601,2.4629,2.4645,2.4653,2.4666,2.4688,2.4707,2.471,2.4717,2.4724,2.4726,2.4693,2.4689,2.4685,2.4679,2.4725,2.4725,2.4759,2.4759,2.4759,2.446,2.4468,2.4485,2.4503,2.4518,2.4515,2.453,2.4543,2.4562,2.4576,2.4592,2.4616,2.4636,2.4648,2.4668,2.4681,2.468,2.4686,2.4685,2.4687,2.4653,2.4646,2.4686,2.4686,2.4686,2.4686,2.4686,2.4686,2.4422,2.4436,2.4449,2.4467,2.4478,2.4491,2.4505,2.4513,2.4529,2.4549,2.4551,2.4573,2.4588,2.4614,2.4624,2.4642,2.4637,2.4644,2.4646,2.4648,2.4649,2.4602,2.4646,2.4646,2.4646,2.4646,2.4646,0,2.4396,2.4398,2.4413,2.443,2.4444,2.4457,2.447,2.4479,2.4485,2.4499,2.4519,2.4531,2.4556,2.4576,2.4596,2.4604,2.4602,2.4602,2.4607,2.4606,2.4604,2.4605,2.4549,2.46,2.46,2.4599,2.4599,2.4599,2.4358,2.4374,2.4389,2.4399,2.4407,2.4424,2.4435,2.4438,2.445,2.4467,2.4479,2.4499,2.4515,2.4547,2.4556,2.4575,2.4573,2.4592,2.4576,2.4576,2.4574,2.4573,2.4575,2.4595,2.4596,2.4596,2.4596,0,2.4337,2.4342,2.4367,2.4379,2.4383,2.44,2.4411,2.4425,2.4431,2.4451,2.4456,2.4465,2.4485,2.449,2.4514,2.4516,2.4546,2.4544,2.4541,2.4541,2.4559,2.4557,2.4615,2.4623,2.4575,2.4576,2.4576,0,2.4307,2.4327,2.4333,2.4347,2.437,2.4372,2.4395,2.4401,2.4412,2.4428,2.4426,2.4441,2.4445,2.4462,2.4465,2.4491,2.4495,2.4498,2.4499,2.4498,2.4498,2.4504,2.4501,2.4499,2.4499,2.4498,2.4498,0,2.4272,2.4298,2.4321,2.4328,2.4343,2.4354,2.4361,2.4372,2.4383,2.4398,2.4405,2.4422,2.4431,2.4445,2.4448,2.4437,2.4479,2.4464,2.4482,2.4482,2.449,2.449,2.454,2.4498,2.4498,2.4497,2.4497,0,2.4248,2.4261,2.4293,2.4306,2.4312,2.4327,2.4343,2.4357,2.437,2.4373,2.4384,2.4382,2.4404,2.4389,2.4419,2.4404,2.4414,2.4418,2.442,2.4421,2.4404,2.4432,2.4479,2.4485,2.4424,2.4424,2.4423,0,2.4208,2.4241,2.4241,2.4272,2.4288,2.4283,2.43,2.4311,2.4315,2.433,2.4335,2.4352,2.4342,2.4348,2.4362,2.4368,2.4389,2.4366,2.4388,2.4389,2.4385,2.4429,2.4434,2.4469,2.4416,2.4416,2.4417,0,2.4177,2.4192,2.4198,2.4205,2.4218,2.4231,2.425,2.4266,2.4276,2.4288,2.4305,2.4328,2.4321,2.433,2.433,2.4345,2.4375,2.4336,2.4336,2.4343,2.4412,2.4417,2.4423,2.4372,2.4373,2.4374,2.4411,0,2.4139,2.4155,2.4169,2.4184,2.4195,2.4213,2.4216,2.4227,2.4225,2.4229,2.4253,2.4262,2.4279,2.4286,2.4284,2.4316,2.4311,2.4303,2.4288,2.4317,2.433,2.4335,2.427,2.4269,2.4269,2.4269,0,0,2.41,2.4122,2.4121,2.4139,2.4147,2.414,2.416,2.4168,2.4183,2.4189,2.4181,2.4215,2.4222,2.4251,2.426,2.4267,2.4273,2.4262,2.4303,2.4307,2.4311,2.4324,2.4329,2.4268,2.4268,2.4268,2.4268,0,2.4086,2.4092,2.411,2.4118,2.4129,2.4131,2.4136,2.4145,2.4148,2.4171,2.4165,2.418,2.4205,2.4214,2.4222,2.4259,2.4253,2.4264,2.4283,2.43,2.4304,2.4308,2.4322,2.4326,2.4267,2.4267,2.4267,0,2.4056,2.4062,2.4071,2.4088,2.4095,2.4111,2.4096,2.4113,2.4124,2.4115,2.4138,2.4143,2.4154,2.4181,2.4193,2.4186,2.4235,2.422,2.4222,2.4223,2.4239,2.4245,2.4249,2.4188,2.4188,2.4188,0,0,2.4043,2.4057,2.4064,2.4085,2.409,2.4093,2.4101,2.4099,2.4109,2.4113,2.4118,2.4128,2.4144,2.4153,2.4168,2.4196,2.4199,2.421,2.4214,2.4217,2.4219,2.4236,2.4242,2.4187,2.4187,2.4187,0,0,2.4037,2.4046,2.4041,2.4066,2.4075,2.4083,2.4096,2.4092,2.4104,2.4102,2.4101,2.4103,2.4128,2.4133,2.4118,2.4162,2.4147,2.4151,2.4158,2.4162,2.4166,2.4164,2.4103,0,0,0,0,0,2.4023,2.4045,2.4041,2.4045,2.4066,2.4085,2.4088,2.4087,2.4077,2.4087,2.4092,2.4084,2.4125,2.4112,2.4117,2.4132,2.4173,2.4175,2.4178,2.4193,2.4198,2.4202,0,0,0,0,0,0,2.4025,2.403,2.404,2.4049,2.4054,2.4085,2.4067,2.4067,2.4075,2.4074,2.4084,2.4085,2.4084,2.4109,2.4114,2.4129,2.4102,2.4174,2.4176,2.4178,2.4195,2.4199,2.4202,0,0,0,0,0,2.4026,2.403,2.4065,2.4049,2.4053,2.4056,2.4066,2.4066,2.4072,2.4078,2.4079,2.4071,2.4085,2.4088,2.4112,2.4127,2.4099,2.4101,2.4175,2.4177,2.4178,2.4197,0,0,0,0,0,0,2.4027,2.4031,2.4066,2.4067,2.404,2.4055,2.4057,2.4065,2.4076,2.4077,2.4065,2.4063,2.4085,2.4088,2.4091,2.4126,2.4097,2.4098,2.4099,2.4176,2.4178,2.4179,0,0,0,0,0,0,2.4029,2.4032,2.4066,2.4055,2.4055,2.4053,2.4055,2.4074,2.4077,2.4062,2.4061,2.4064,2.4081,2.4088,2.409,2.4121,2.4095,2.4096,2.4097,2.4098,2.4177,2.4178,0,0,0,0,0,0,2.403,2.4033,2.4055,2.4055,2.4055,2.4069,2.407,2.4092,2.4067,2.4062,2.4064,2.4063,2.4082,2.4084,2.409,2.4119,2.412,2.4095,2.4096,2.4097,2.4097,0,0,0,0,0,0,0,2.4031,2.4012,2.4058,2.4055,2.4054,2.4078,2.4079,2.4079,2.4066,2.4066,2.4065,2.4064,2.4086,2.4088,2.4089,2.4118,0,0,2.4095,2.4095,0,0,0,0,0,0,0,0,2.4011,2.4012,2.4058,2.4058,2.4059,2.4079,2.4079,2.4079,2.4066,2.4066,2.4065,2.4064,2.4086,2.4088,2.4089,0,0,0,0,0,0,0,0,0,0,0,0,0,0,0,2.4058,2.4058,0,2.4079,2.4079,2.4079,2.4066,2.4066,2.4065,2.4064,2.4087,2.4088,2.4089,0,0,0,0,0,0,0,0,0,0,0,0,0,0,0,0,0,0,0,0,0,0,0,0,0,0,0,0,0,0,0,0,0,0,0,0,0,0,0,0,0,0,0,0,0,0,0,0,0,0,0,0,0,0,0,0,0,0,0,0,0,0,0,0,0,0,0,0,0]}],[{"header":{"parameterUnit":"kt","parameterCategory":2,"dx":1,"dy":1,"la1":30.253999710083008,"la2":30.299108505249023,"lo1":-89.0895004272461,"lo2":-89.04439544677734,"nx":28,"ny":28,"refTime":"2022-10-19T21:00:00:Z","depth":0,"parameterNumber":2,"parameterNumberName":"V-component_of_WINDS"},"data":[-4.0127,-4.0186,-4.0221,-4.0305,-4.035,-4.0413,-4.0447,-4.0494,-4.054,-4.0619,-4.067,-4.071,-4.0768,-4.0838,-4.0895,-4.0911,-4.0933,-4.0931,-4.0951,-4.0932,-4.0932,-4.0932,-4.0921,-4.0934,-4.0935,-4.0966,-4.0966,-4.0966,-4.0116,-4.0161,-4.0215,-4.029,-4.0337,-4.0362,-4.0423,-4.046,-4.0516,-4.0572,-4.0623,-4.0695,-4.0755,-4.0816,-4.0879,-4.0908,-4.0923,-4.0923,-4.0922,-4.0932,-4.0913,-4.0901,-4.091,-4.091,-4.091,-4.091,-4.091,-4.091,-4.0105,-4.0138,-4.0204,-4.0263,-4.0309,-4.0359,-4.0397,-4.0446,-4.0498,-4.0568,-4.0598,-4.066,-4.0722,-4.0814,-4.0852,-4.0902,-4.0908,-4.0918,-4.0922,-4.0924,-4.0923,-4.0879,-4.0914,-4.0914,-4.0914,-4.0914,-4.0914,0,-4.0108,-4.0134,-4.0187,-4.0251,-4.0295,-4.0347,-4.04,-4.0424,-4.049,-4.053,-4.0591,-4.0631,-4.0711,-4.0772,-4.0838,-4.0876,-4.0904,-4.0909,-4.0918,-4.0906,-4.0888,-4.0901,-4.0872,-4.0908,-4.0908,-4.0908,-4.0908,-4.0908,-4.0101,-4.0134,-4.0218,-4.0251,-4.0288,-4.0339,-4.0377,-4.0432,-4.0469,-4.0542,-4.0568,-4.0629,-4.0681,-4.0771,-4.0826,-4.0884,-4.0899,-4.091,-4.0908,-4.0896,-4.0902,-4.0901,-4.0906,-4.0909,-4.0909,-4.0909,-4.0909,0,-4.0094,-4.0149,-4.0212,-4.0291,-4.0312,-4.0344,-4.0412,-4.0446,-4.0488,-4.0542,-4.0558,-4.0623,-4.0681,-4.0733,-4.0808,-4.0834,-4.089,-4.0901,-4.0871,-4.0877,-4.0894,-4.0892,-4.0935,-4.0944,-4.0928,-4.0928,-4.0928,0,-4.0111,-4.0152,-4.0232,-4.0265,-4.0313,-4.0368,-4.0414,-4.0454,-4.0508,-4.055,-4.0591,-4.063,-4.069,-4.0737,-4.0774,-4.0829,-4.0842,-4.0866,-4.0876,-4.0864,-4.0861,-4.0885,-4.0885,-4.0893,-4.0893,-4.0893,-4.0893,0,-4.0096,-4.0185,-4.024,-4.0269,-4.0356,-4.038,-4.0417,-4.0477,-4.0512,-4.0566,-4.059,-4.0647,-4.0679,-4.0724,-4.0772,-4.0769,-4.0839,-4.0845,-4.0864,-4.0863,-4.0877,-4.0876,-4.0899,-4.0892,-4.0892,-4.0892,-4.0892,0,-4.0117,-4.0172,-4.0241,-4.0315,-4.0336,-4.0371,-4.0433,-4.0475,-4.0534,-4.0561,-4.0603,-4.0636,-4.0686,-4.0688,-4.0759,-4.0742,-4.0771,-4.0798,-4.08,-4.0809,-4.0811,-4.082,-4.0835,-4.084,-4.0816,-4.0816,-4.0815,0,-4.0087,-4.0171,-4.0218,-4.0282,-4.0328,-4.0372,-4.0411,-4.0462,-4.0501,-4.0546,-4.0588,-4.0637,-4.065,-4.0672,-4.07,-4.0746,-4.0767,-4.0744,-4.0809,-4.081,-4.0795,-4.0809,-4.0799,-4.0826,-4.0808,-4.0809,-4.0809,0,-4.007,-4.0175,-4.0183,-4.0219,-4.0295,-4.0333,-4.0377,-4.0439,-4.0466,-4.0517,-4.0557,-4.0626,-4.064,-4.0676,-4.0708,-4.0734,-4.0754,-4.0744,-4.0746,-4.0746,-4.0807,-4.0799,-4.0803,-4.077,-4.0771,-4.0772,-4.0803,0,-4.0095,-4.0143,-4.0166,-4.0241,-4.0278,-4.032,-4.0376,-4.0408,-4.0436,-4.0475,-4.0533,-4.0586,-4.0646,-4.0663,-4.069,-4.0732,-4.0734,-4.0746,-4.0753,-4.0761,-4.0773,-4.0778,-4.0731,-4.0732,-4.0732,-4.0733,0,0,-4.0054,-4.0123,-4.0172,-4.0217,-4.0252,-4.0296,-4.0335,-4.0374,-4.0449,-4.0472,-4.0477,-4.0581,-4.0623,-4.0687,-4.0694,-4.0717,-4.0731,-4.0725,-4.0756,-4.0759,-4.0761,-4.0773,-4.0777,-4.0733,-4.0734,-4.0734,-4.0734,0,-4.0075,-4.0118,-4.0156,-4.0199,-4.0263,-4.0303,-4.0312,-4.0382,-4.0409,-4.0465,-4.0499,-4.054,-4.062,-4.0662,-4.0694,-4.0718,-4.0742,-4.0732,-4.0729,-4.0759,-4.076,-4.0762,-4.0774,-4.0777,-4.0735,-4.0735,-4.0735,0,-4.007,-4.0122,-4.0146,-4.0226,-4.0267,-4.0312,-4.0334,-4.0379,-4.0413,-4.0456,-4.0511,-4.0547,-4.0606,-4.0658,-4.0683,-4.0687,-4.075,-4.0738,-4.0737,-4.0741,-4.0773,-4.0775,-4.0777,-4.0753,-4.0753,-4.0753,0,0,-4.008,-4.0124,-4.0196,-4.0234,-4.0258,-4.0317,-4.0346,-4.0377,-4.0429,-4.045,-4.0497,-4.0547,-4.0595,-4.0625,-4.0672,-4.072,-4.0738,-4.0738,-4.0738,-4.0737,-4.074,-4.0772,-4.0774,-4.0752,-4.0752,-4.0752,0,0,-4.0085,-4.0171,-4.019,-4.0241,-4.029,-4.0364,-4.0385,-4.041,-4.0458,-4.0459,-4.0512,-4.0527,-4.0576,-4.061,-4.0596,-4.0676,-4.0682,-4.0686,-4.0652,-4.0652,-4.0651,-4.0643,-4.0625,0,0,0,0,0,-4.0135,-4.0161,-4.0177,-4.0194,-4.0293,-4.0355,-4.0368,-4.0413,-4.0417,-4.0433,-4.0477,-4.0499,-4.0614,-4.0603,-4.0619,-4.0634,-4.0745,-4.0746,-4.0747,-4.0716,-4.0715,-4.0714,0,0,0,0,0,0,-4.0142,-4.0162,-4.0177,-4.025,-4.0273,-4.0354,-4.0371,-4.0385,-4.0417,-4.042,-4.049,-4.0502,-4.054,-4.0598,-4.0612,-4.0625,-4.0621,-4.0745,-4.0747,-4.0747,-4.0715,-4.0715,-4.0714,0,0,0,0,0,-4.0147,-4.0164,-4.0311,-4.025,-4.027,-4.0336,-4.0371,-4.0382,-4.0407,-4.0475,-4.0487,-4.0439,-4.0539,-4.0554,-4.0606,-4.0618,-4.0612,-4.0617,-4.0746,-4.0747,-4.0748,-4.0715,0,0,0,0,0,0,-4.0152,-4.0174,-4.0316,-4.0323,-4.0244,-4.0333,-4.0348,-4.0379,-4.046,-4.0473,-4.0425,-4.0427,-4.0539,-4.055,-4.0561,-4.0613,-4.0605,-4.061,-4.0613,-4.0747,-4.0747,-4.0748,0,0,0,0,0,0,-4.0166,-4.018,-4.032,-4.0309,-4.0316,-4.0329,-4.0343,-4.0393,-4.0461,-4.0407,-4.0411,-4.0425,-4.0523,-4.0548,-4.0556,-4.0633,-4.0599,-4.0604,-4.0607,-4.0609,-4.0747,-4.0748,0,0,0,0,0,0,-4.0173,-4.0185,-4.0307,-4.0312,-4.0318,-4.0408,-4.0374,-4.0473,-4.0452,-4.0402,-4.0452,-4.0451,-4.052,-4.0529,-4.0553,-4.0626,-4.0631,-4.06,-4.0603,-4.0605,-4.0606,0,0,0,0,0,0,0,-4.0178,-4.0083,-4.027,-4.0315,-4.0321,-4.0394,-4.0397,-4.0399,-4.0452,-4.0452,-4.0452,-4.0452,-4.0573,-4.0578,-4.0583,-4.062,0,0,-4.0599,-4.0601,0,0,0,0,0,0,0,0,-4.0079,-4.0082,-4.027,-4.0272,-4.0274,-4.0395,-4.0396,-4.0398,-4.0452,-4.0452,-4.0452,-4.0452,-4.0574,-4.0579,-4.0583,0,0,0,0,0,0,0,0,0,0,0,0,0,0,0,-4.0271,-4.0272,0,-4.0395,-4.0396,-4.0398,-4.0452,-4.0452,-4.0452,-4.0452,-4.0576,-4.0579,-4.0582,0,0,0,0,0,0,0,0,0,0,0,0,0,0,0,0,0,0,0,0,0,0,0,0,0,0,0,0,0,0,0,0,0,0,0,0,0,0,0,0,0,0,0,0,0,0,0,0,0,0,0,0,0,0,0,0,0,0,0,0,0,0,0,0,0,0,0,0,0]}]]]